TimeEST,TemperatureF,Dew PointF,Humidity,Sea Level PressureIn,VisibilityMPH,Wind Direction,Wind SpeedMPH,Gust SpeedMPH,PrecipitationIn,Events,Conditions,WindDirDegrees,DateUTC
12:15 AM,69.8,69.8,100,29.99,7.0,SSW,8.1,-,N/A,,Overcast,210,2013-02-13 05:15:00
12:35 AM,69.8,69.8,100,29.99,7.0,SW,8.1,-,N/A,,Overcast,220,2013-02-13 05:35:00
12:55 AM,69.8,69.8,100,29.98,7.0,SSW,9.2,-,N/A,,Overcast,200,2013-02-13 05:55:00
1:15 AM,69.8,69.8,100,29.97,7.0,SSW,10.4,16.1,N/A,,Overcast,200,2013-02-13 06:15:00
1:35 AM,69.8,69.8,100,29.97,7.0,SSW,11.5,17.3,N/A,,Overcast,210,2013-02-13 06:35:00
1:55 AM,69.8,69.8,100,29.97,7.0,SSW,10.4,18.4,N/A,,Overcast,200,2013-02-13 06:55:00
2:15 AM,69.8,69.8,100,29.97,7.0,SW,10.4,-,N/A,,Overcast,220,2013-02-13 07:15:00
2:35 AM,69.8,69.8,100,29.96,7.0,SSW,10.4,-,N/A,,Overcast,200,2013-02-13 07:35:00
2:55 AM,69.8,69.8,100,29.95,7.0,SSW,10.4,-,N/A,,Overcast,200,2013-02-13 07:55:00
3:15 AM,69.8,69.8,100,29.95,7.0,SSW,8.1,-,N/A,,Overcast,210,2013-02-13 08:15:00
3:35 AM,69.8,69.8,100,29.95,7.0,SSW,8.1,-,N/A,,Overcast,200,2013-02-13 08:35:00
3:55 AM,69.8,69.8,100,29.95,7.0,SSW,9.2,-,N/A,,Overcast,200,2013-02-13 08:55:00
4:15 AM,68.0,68.0,100,29.95,10.0,SSW,6.9,-,N/A,,Overcast,210,2013-02-13 09:15:00
4:35 AM,68.0,68.0,100,29.95,7.0,SSW,9.2,-,N/A,,Overcast,200,2013-02-13 09:35:00
4:55 AM,68.0,68.0,100,29.94,7.0,SSW,5.8,-,N/A,,Overcast,200,2013-02-13 09:55:00
5:15 AM,68.0,68.0,100,29.94,7.0,SSW,5.8,-,N/A,,Mostly Cloudy,200,2013-02-13 10:15:00
5:35 AM,68.0,68.0,100,29.94,7.0,South,5.8,-,N/A,,Mostly Cloudy,190,2013-02-13 10:35:00
5:55 AM,68.0,68.0,100,29.95,7.0,SSW,5.8,-,N/A,,Scattered Clouds,200,2013-02-13 10:55:00
6:15 AM,66.2,66.2,100,29.95,7.0,South,4.6,-,N/A,,Scattered Clouds,190,2013-02-13 11:15:00
6:35 AM,66.2,66.2,100,29.95,7.0,SSW,5.8,-,N/A,,Scattered Clouds,200,2013-02-13 11:35:00
6:55 AM,66.2,66.2,100,29.95,7.0,South,5.8,-,N/A,,Scattered Clouds,180,2013-02-13 11:55:00
7:15 AM,66.2,66.2,100,29.95,7.0,South,5.8,-,N/A,,Mostly Cloudy,190,2013-02-13 12:15:00
7:35 AM,68.0,68.0,100,29.96,7.0,South,6.9,-,N/A,,Overcast,190,2013-02-13 12:35:00
7:55 AM,68.0,68.0,100,29.96,7.0,South,6.9,-,N/A,,Overcast,180,2013-02-13 12:55:00
8:15 AM,68.0,68.0,100,29.97,7.0,South,6.9,-,N/A,,Overcast,190,2013-02-13 13:15:00
8:35 AM,69.8,69.8,100,29.97,7.0,SSW,8.1,-,N/A,,Overcast,200,2013-02-13 13:35:00
8:55 AM,69.8,69.8,100,29.98,7.0,SSW,6.9,-,N/A,,Overcast,210,2013-02-13 13:55:00
9:15 AM,71.6,71.6,100,29.98,7.0,SSW,11.5,-,N/A,,Overcast,210,2013-02-13 14:15:00
9:35 AM,73.4,71.6,94,29.98,10.0,SSW,10.4,-,N/A,,Mostly Cloudy,210,2013-02-13 14:35:00
9:55 AM,73.4,69.8,88,29.98,10.0,SSW,13.8,24.2,N/A,,Scattered Clouds,200,2013-02-13 14:55:00
10:15 AM,77.0,68.0,74,29.97,10.0,SSW,18.4,24.2,N/A,,Scattered Clouds,200,2013-02-13 15:15:00
10:35 AM,77.0,68.0,74,29.97,10.0,SW,18.4,23.0,N/A,,Scattered Clouds,220,2013-02-13 15:35:00
10:55 AM,78.8,66.2,65,29.97,10.0,SW,18.4,26.5,N/A,,Scattered Clouds,220,2013-02-13 15:55:00
11:15 AM,80.6,64.4,58,29.96,10.0,SSW,16.1,25.3,N/A,,Scattered Clouds,200,2013-02-13 16:15:00
11:35 AM,80.6,64.4,58,29.95,10.0,SW,15.0,26.5,N/A,,Scattered Clouds,220,2013-02-13 16:35:00
11:55 AM,80.6,64.4,58,29.94,10.0,SW,16.1,21.9,N/A,,Mostly Cloudy,230,2013-02-13 16:55:00
12:15 PM,82.4,62.6,51,29.94,10.0,SW,18.4,25.3,N/A,,Scattered Clouds,220,2013-02-13 17:15:00
12:35 PM,80.6,62.6,54,29.93,10.0,SW,20.7,28.8,N/A,,Scattered Clouds,230,2013-02-13 17:35:00
12:55 PM,82.4,62.6,51,29.92,10.0,SW,20.7,28.8,N/A,,Scattered Clouds,220,2013-02-13 17:55:00
1:15 PM,82.4,64.4,54,29.91,10.0,SW,19.6,32.2,N/A,,Scattered Clouds,220,2013-02-13 18:15:00
1:35 PM,82.4,64.4,54,29.90,10.0,SSW,20.7,26.5,N/A,,Scattered Clouds,210,2013-02-13 18:35:00
1:55 PM,80.6,64.4,58,29.89,10.0,SW,19.6,28.8,N/A,,Mostly Cloudy,230,2013-02-13 18:55:00
2:15 PM,80.6,64.4,58,29.89,10.0,WSW,23.0,32.2,N/A,,Mostly Cloudy,240,2013-02-13 19:15:00
2:35 PM,80.6,64.4,58,29.89,10.0,SW,20.7,28.8,N/A,,Mostly Cloudy,220,2013-02-13 19:35:00
2:55 PM,78.8,64.4,61,29.89,10.0,SW,19.6,29.9,N/A,,Mostly Cloudy,230,2013-02-13 19:55:00
3:15 PM,78.8,66.2,65,29.88,10.0,SW,19.6,26.5,N/A,,Mostly Cloudy,220,2013-02-13 20:15:00
3:35 PM,78.8,66.2,65,29.88,10.0,SW,16.1,27.6,N/A,,Mostly Cloudy,230,2013-02-13 20:35:00
3:55 PM,78.8,68.0,69,29.88,10.0,SW,16.1,23.0,N/A,Thunderstorm,Mostly Cloudy,220,2013-02-13 20:55:00
4:15 PM,78.8,68.0,69,29.88,10.0,SW,17.3,25.3,N/A,,Mostly Cloudy,230,2013-02-13 21:15:00
4:35 PM,77.0,68.0,74,29.88,10.0,SW,17.3,21.9,N/A,,Mostly Cloudy,220,2013-02-13 21:35:00
4:55 PM,77.0,68.0,74,29.87,10.0,SSW,12.7,18.4,N/A,,Mostly Cloudy,210,2013-02-13 21:55:00
5:15 PM,77.0,69.8,78,29.88,10.0,SW,17.3,20.7,N/A,,Mostly Cloudy,220,2013-02-13 22:15:00
5:35 PM,69.8,66.2,88,29.90,7.0,West,17.3,26.5,0.03,Rain,Heavy Rain,280,2013-02-13 22:35:00
5:55 PM,68.0,68.0,100,29.91,5.0,West,6.9,-,0.23,Rain,Rain,260,2013-02-13 22:55:00
6:15 PM,68.0,68.0,100,29.92,10.0,West,6.9,-,0.01,,Overcast,260,2013-02-13 23:15:00
6:35 PM,68.0,68.0,100,29.91,5.0,WNW,6.9,-,0.04,Rain,Rain,290,2013-02-13 23:35:00
6:55 PM,68.0,68.0,100,29.92,10.0,NW,6.9,-,0.04,,Overcast,320,2013-02-13 23:55:00
7:15 PM,66.2,66.2,100,29.93,10.0,NNW,11.5,-,0.01,Rain,Rain,330,2013-02-14 00:15:00
7:35 PM,64.4,64.4,100,29.95,10.0,NW,10.4,16.1,0.01,,Overcast,310,2013-02-14 00:35:00
7:55 PM,62.6,59.0,88,29.98,10.0,NW,9.2,23.0,0.01,Rain,Light Rain,320,2013-02-14 00:55:00
8:15 PM,60.8,59.0,94,29.99,10.0,WNW,5.8,-,N/A,Rain,Light Rain,300,2013-02-14 01:15:00
8:35 PM,60.8,59.0,94,29.97,10.0,NNW,4.6,-,N/A,,Light Drizzle,340,2013-02-14 01:35:00
8:55 PM,60.8,59.0,94,29.98,10.0,NNW,4.6,-,N/A,,Overcast,330,2013-02-14 01:55:00
9:15 PM,60.8,59.0,94,29.99,10.0,WNW,3.5,-,N/A,,Overcast,290,2013-02-14 02:15:00
9:35 PM,60.8,59.0,94,29.99,7.0,Calm,Calm,-,0.01,Rain,Heavy Rain,0,2013-02-14 02:35:00
9:55 PM,60.8,59.0,94,29.99,10.0,Calm,Calm,-,0.01,Rain,Rain,0,2013-02-14 02:55:00
10:15 PM,60.8,59.0,94,30.00,10.0,Calm,Calm,-,N/A,,Overcast,0,2013-02-14 03:15:00
10:35 PM,60.8,60.8,100,30.00,10.0,Calm,Calm,-,N/A,,Drizzle,0,2013-02-14 03:35:00
10:55 PM,60.8,59.0,94,30.01,10.0,NW,3.5,-,N/A,,Overcast,310,2013-02-14 03:55:00
11:15 PM,60.8,59.0,94,30.01,10.0,NW,3.5,-,N/A,,Overcast,320,2013-02-14 04:15:00
11:35 PM,60.8,60.8,100,30.01,10.0,Calm,Calm,-,N/A,,Overcast,0,2013-02-14 04:35:00
11:55 PM,60.8,60.8,100,30.02,10.0,Calm,Calm,-,N/A,,Overcast,0,2013-02-14 04:55:00